User: anonymous   Login
Location: Guilderland
(42.7045°N, 73.9115°W)
Time: 02:06:24
(UTC+00:00)
Language:

Cosmos 2221 - Orbit

View from above orbital plane
View from above orbital plane
View from above satellite
View from above satellite

Ground track
Ground track

The orbit data is extracted from the following two-line orbital elements,

1 22236U 92080A   20091.75073490  .00000165  00000-0  15274-4 0  9996
2 22236  82.5107 177.0744 0015847 214.9189 145.0990 14.87907401478760
Epoch (UTC): 31 March 2020 18:01:03
Eccentricity: 0.0015847
inclination: 82.5107°
perigee height: 593 km
apogee height: 615 km
right ascension of ascending node: 177.0744°
argument of perigee: 214.9189°
revolutions per day: 14.87907401
mean anomaly at epoch: 145.0990°
orbit number at epoch: 47876

The dashed part of the orbit path shows where the satellite is in the earth's shadow,  

DLR